Date String (YYYY-MM-DD hh:mm:ss) UTC,Instrument flags,Ambient pressure (hPa),Sample flow (lpm),Bypass flow (lpm),Sample temperature (°C),Ambient temperature (°C),ASC tube jacket temperature (°C),LED temperature (°C),Box temperature (°C),Sample RH (%),Span deviation,Mass concentration (μg/m³),Mass concentration (μg/m³),Mass concentration (μg/m³)
DateTimeUTC,F1_M11,P_M11,Q1_M11,Q2_M11,T1_M11,T2_M11,T3_M11,T4_M11,T5_M11,U1_M11,ZSPAN_M11,X2_M11,X0_M11,X1_M11
2022-11-02 06:00:00,,0819.4,4.99,0.00,29.3,27.7,00.0,38.1,31.0,07.6,0000.0,0002.15,0002.81,0001.94
2022-11-02 06:01:00,,0819.4,5.00,0.00,29.2,27.7,00.0,38.1,31.0,07.5,0000.0,0002.18,0003.24,0001.94
2022-11-02 06:02:00,,0819.4,5.00,0.00,29.2,27.7,00.0,38.1,31.0,07.7,0000.0,0002.21,0004.12,0001.94
2022-11-02 06:03:00,,0819.3,5.01,0.00,29.2,27.7,00.0,38.1,31.0,07.8,0000.0,0002.21,0004.11,0001.94
2022-11-02 06:04:00,,0819.3,4.98,0.00,29.2,27.7,00.0,38.1,31.0,07.7,0000.0,0002.24,0004.15,0001.93
2022-11-02 06:05:00,,0819.3,5.02,0.00,29.2,27.7,00.0,38.1,30.9,07.6,0000.0,0002.25,0004.19,0001.93
2022-11-02 06:06:00,,0819.3,5.00,0.00,29.2,27.6,00.0,38.1,30.9,07.6,0000.0,0002.27,0004.84,0001.94
2022-11-02 06:07:00,,0819.3,4.99,0.00,29.2,27.7,00.0,38.1,30.9,07.6,0000.0,0002.32,0005.20,0001.97
2022-11-02 06:08:00,,0819.2,4.99,0.00,29.2,27.6,00.0,38.1,31.0,07.4,0000.0,0002.35,0005.26,0001.99
2022-11-02 06:09:00,,0819.2,5.01,0.00,29.2,27.6,00.0,38.1,30.9,07.4,0000.0,0002.35,0005.34,0001.98
2022-11-02 06:10:00,,0819.2,5.00,0.00,29.2,27.6,00.0,38.1,30.9,07.4,0000.0,0002.33,0005.36,0001.97
2022-11-02 06:11:00,,0819.3,4.99,0.00,29.2,27.7,00.0,38.1,31.0,07.2,0000.0,0002.30,0005.27,0001.97
2022-11-02 06:12:00,,0819.3,5.00,0.00,29.2,27.7,00.0,38.1,31.0,07.2,0000.0,0002.27,0005.15,0001.96
2022-11-02 06:13:00,,0819.3,5.00,0.00,29.2,27.7,00.0,38.1,31.0,07.1,0000.0,0002.21,0004.01,0001.95
2022-11-02 06:14:00,,0819.3,5.01,0.00,29.2,27.7,00.0,38.1,31.0,07.4,0000.0,0002.21,0003.96,0001.95
2022-11-02 06:15:00,,0819.3,5.00,0.00,29.2,27.6,00.0,38.1,30.9,07.5,0000.0,0002.20,0003.96,0001.96
2022-11-02 06:16:00,,0819.3,4.99,0.00,29.2,27.6,00.0,38.1,30.9,07.4,0000.0,0002.18,0003.91,0001.96
2022-11-02 06:17:00,,0819.2,5.00,0.00,29.2,27.6,00.0,38.1,30.9,07.5,0000.0,0002.20,0003.62,0001.97
2022-11-02 06:18:00,,0819.2,4.99,0.00,29.2,27.6,00.0,38.1,30.9,07.7,0000.0,0002.21,0003.08,0001.96
2022-11-02 06:19:00,,0819.3,5.02,0.00,29.2,27.6,00.0,38.0,30.9,07.8,0000.0,0002.20,0003.06,0001.95
2022-11-02 06:20:00,,0819.3,4.99,0.00,29.2,27.6,00.0,38.0,30.9,07.8,0000.0,0002.21,0003.06,0001.94
2022-11-02 06:21:00,,0819.3,5.00,0.00,29.2,27.6,00.0,38.0,30.9,07.9,0000.0,0002.25,0003.19,0001.95
2022-11-02 06:22:00,,0819.2,5.01,0.00,29.2,27.6,00.0,38.0,30.9,07.9,0000.0,0002.28,0003.45,0001.97
2022-11-02 06:23:00,,0819.3,4.99,0.00,29.2,27.6,00.0,38.0,30.9,07.9,0000.0,0002.30,0003.47,0001.98
2022-11-02 06:24:00,,0819.2,4.99,0.00,29.1,27.6,00.0,38.0,30.9,07.9,0000.0,0002.33,0003.54,0001.99
2022-11-02 06:25:00,,0819.3,5.00,0.00,29.1,27.6,00.0,38.0,30.9,07.9,0000.0,0002.38,0003.83,0002.00
2022-11-02 06:26:00,,0819.3,5.02,0.00,29.1,27.6,00.0,38.0,30.9,07.9,0000.0,0002.42,0003.93,0001.99
2022-11-02 06:27:00,,0819.3,4.98,0.00,29.1,27.5,00.0,38.0,30.8,08.0,0000.0,0002.40,0003.89,0001.98
2022-11-02 06:28:00,,0819.3,5.02,0.00,29.1,27.5,00.0,38.0,30.8,07.9,0000.0,0002.38,0003.95,0001.97
2022-11-02 06:29:00,,0819.3,4.98,0.00,29.1,27.6,00.0,38.0,30.9,07.9,0000.0,0002.38,0004.38,0001.96
2022-11-02 06:30:00,,0819.3,5.00,0.00,29.1,27.6,00.0,38.0,30.8,07.8,0000.0,0002.37,0004.37,0001.95
2022-11-02 06:31:00,,0819.2,4.99,0.00,29.1,27.6,00.0,38.0,30.8,07.8,0000.0,0002.38,0004.40,0001.94
2022-11-02 06:32:00,,0819.2,5.00,0.00,29.1,27.6,00.0,38.0,30.9,07.7,0000.0,0002.35,0004.24,0001.94
2022-11-02 06:33:00,,0819.2,5.00,0.00,29.1,27.6,00.0,38.0,30.9,07.7,0000.0,0002.35,0003.99,0001.93
2022-11-02 06:34:00,,0819.3,5.00,0.00,29.1,27.6,00.0,38.0,30.9,07.7,0000.0,0002.34,0004.00,0001.93
2022-11-02 06:35:00,,0819.2,5.00,0.00,29.1,27.6,00.0,38.0,30.8,07.6,0000.0,0002.34,0004.10,0001.92
2022-11-02 06:36:00,,0819.1,5.00,0.00,29.1,27.6,00.0,38.0,30.9,07.6,0000.0,0002.29,0003.90,0001.91
2022-11-02 06:37:00,,0819.1,5.02,0.00,29.1,27.6,00.0,38.0,30.9,07.6,0000.0,0002.22,0003.82,0001.91
2022-11-02 06:38:00,,0819.1,4.99,0.00,29.1,27.6,00.0,37.9,30.9,07.6,0000.0,0002.26,0003.93,0001.91
2022-11-02 06:39:00,,0819.2,5.02,0.00,29.1,27.6,00.0,37.9,30.8,07.6,0000.0,0002.25,0003.92,0001.89
2022-11-02 06:40:00,,0819.3,4.99,0.00,29.1,27.6,00.0,37.9,30.8,07.7,0000.0,0002.20,0003.33,0001.87
2022-11-02 06:41:00,,0819.3,5.00,0.00,29.1,27.6,00.0,37.9,30.9,07.6,0000.0,0002.19,0003.32,0001.86
2022-11-02 06:42:00,,0819.3,5.00,0.00,29.1,27.6,00.0,37.9,30.8,07.7,0000.0,0002.18,0003.32,0001.87
2022-11-02 06:43:00,,0819.4,5.00,0.00,29.1,27.6,00.0,37.9,30.8,07.7,0000.0,0002.20,0003.38,0001.85
2022-11-02 06:44:00,,0819.4,5.00,0.00,29.1,27.6,00.0,37.9,30.8,07.7,0000.0,0002.21,0003.42,0001.85
2022-11-02 06:45:00,,0819.3,5.00,0.00,29.1,27.6,00.0,37.9,30.8,07.4,0000.0,0002.22,0003.45,0001.85
2022-11-02 06:46:00,,0819.3,5.00,0.00,29.1,27.6,00.0,37.9,30.9,07.5,0000.0,0002.19,0003.29,0001.85
2022-11-02 06:47:00,,0819.3,5.00,0.00,29.1,27.6,00.0,37.9,30.8,07.4,0000.0,0002.19,0003.25,0001.84
2022-11-02 06:48:00,,0819.3,5.01,0.00,29.1,27.6,00.0,37.9,30.8,07.7,0000.0,0002.17,0003.10,0001.82
2022-11-02 06:49:00,,0819.2,5.00,0.00,29.1,27.6,00.0,37.9,30.8,07.6,0000.0,0002.11,0003.45,0001.80
2022-11-02 06:50:00,,0819.2,5.00,0.00,29.1,27.6,00.0,37.9,30.9,07.5,0000.0,0002.11,0003.93,0001.80
2022-11-02 06:51:00,,0819.3,5.00,0.00,29.1,27.5,00.0,37.9,30.9,07.5,0000.0,0002.11,0004.51,0001.81
2022-11-02 06:52:00,,0819.3,5.00,0.00,29.0,27.5,00.0,37.9,30.8,07.5,0000.0,0002.08,0004.62,0001.80
2022-11-02 06:53:00,,0819.3,5.00,0.00,29.0,27.5,00.0,37.9,30.8,07.5,0000.0,0002.03,0004.53,0001.79
2022-11-02 06:54:00,,0819.2,5.00,0.00,29.0,27.5,00.0,37.9,30.8,07.4,0000.0,0002.00,0004.44,0001.80
2022-11-02 06:55:00,,0819.3,4.99,0.00,29.0,27.5,00.0,37.9,30.8,07.4,0000.0,0001.98,0004.37,0001.80
2022-11-02 06:56:00,,0819.2,5.02,0.00,29.0,27.5,00.0,37.9,30.8,07.5,0000.0,0002.02,0004.45,0001.81
2022-11-02 06:57:00,,0819.3,4.99,0.00,29.0,27.5,00.0,37.9,30.8,07.4,0000.0,0002.07,0004.54,0001.80
2022-11-02 06:58:00,,0819.3,4.99,0.00,29.0,27.5,00.0,37.9,30.8,07.5,0000.0,0002.10,0004.67,0001.82
2022-11-02 06:59:00,,0819.3,5.02,0.00,29.0,27.5,00.0,37.9,30.8,07.5,0000.0,0002.15,0004.79,0001.84
